Time,TemperatureF,DewpointF,PressureIn,WindDirection,WindDirectionDegrees,WindSpeedMPH,WindSpeedGustMPH,Humidity,HourlyPrecipIn,Conditions,Clouds,dailyrainin,SoftwareType,DateUTC
2013-02-15 00:11:00,35.3,32.0,30.05,WSW,248,1.0,2.0,88,0.00,,,0.00,weatherlink.com 1.10,2013-02-15 02:11:00,
2013-02-15 00:27:00,34.2,31.0,30.07,WSW,248,0.0,0.0,87,0.00,,,0.00,weatherlink.com 1.10,2013-02-15 02:27:00,
2013-02-15 00:42:00,34.1,31.0,30.07,WSW,248,0.0,2.0,89,0.00,,,0.00,weatherlink.com 1.10,2013-02-15 02:42:00,
2013-02-15 00:57:00,34.1,31.0,30.07,WSW,248,1.0,0.0,90,0.00,,,0.00,weatherlink.com 1.10,2013-02-15 02:57:00,
2013-02-15 01:12:00,32.5,30.0,30.08,WSW,248,2.0,3.0,89,0.00,,,0.00,weatherlink.com 1.10,2013-02-15 03:12:00,
2013-02-15 01:28:00,33.3,31.0,30.07,WSW,250,1.0,2.0,92,0.00,,,0.00,weatherlink.com 1.10,2013-02-15 03:28:00,
2013-02-15 01:43:00,32.6,30.0,30.08,WSW,250,0.0,0.0,90,0.00,,,0.00,weatherlink.com 1.10,2013-02-15 03:43:00,
2013-02-15 01:59:00,32.6,30.0,30.08,WSW,250,0.0,0.0,91,0.00,,,0.00,weatherlink.com 1.10,2013-02-15 03:59:00,
2013-02-15 02:14:00,32.0,30.0,30.07,WSW,250,0.0,0.0,91,0.00,,,0.00,weatherlink.com 1.10,2013-02-15 04:14:00,
2013-02-15 02:29:00,31.0,29.0,30.08,WSW,250,0.0,0.0,91,0.00,,,0.00,weatherlink.com 1.10,2013-02-15 04:29:00,
2013-02-15 02:44:00,30.7,29.0,30.08,WSW,250,0.0,0.0,92,0.00,,,0.00,weatherlink.com 1.10,2013-02-15 04:44:00,
2013-02-15 03:00:00,29.8,28.0,30.08,WSW,250,0.0,0.0,93,0.00,,,0.00,weatherlink.com 1.10,2013-02-15 05:00:00,
2013-02-15 03:16:00,29.8,28.0,30.09,WSW,250,0.0,0.0,93,0.00,,,0.00,weatherlink.com 1.10,2013-02-15 05:16:00,
2013-02-15 03:31:00,29.7,28.0,30.09,WSW,250,0.0,0.0,94,0.00,,,0.00,weatherlink.com 1.10,2013-02-15 05:31:00,
2013-02-15 03:46:00,29.1,27.0,30.10,WSW,250,0.0,0.0,93,0.00,,,0.00,weatherlink.com 1.10,2013-02-15 05:46:00,
2013-02-15 04:01:00,29.0,27.0,30.10,WSW,250,0.0,0.0,94,0.00,,,0.00,weatherlink.com 1.10,2013-02-15 06:01:00,
2013-02-15 04:17:00,29.1,28.0,30.11,WSW,250,0.0,0.0,94,0.00,,,0.00,weatherlink.com 1.10,2013-02-15 06:17:00,
2013-02-15 04:32:00,28.8,27.0,30.11,WSW,250,0.0,0.0,94,0.00,,,0.00,weatherlink.com 1.10,2013-02-15 06:32:00,
2013-02-15 04:47:00,28.7,27.0,30.10,WSW,250,0.0,0.0,94,0.00,,,0.00,weatherlink.com 1.10,2013-02-15 06:47:00,
2013-02-15 05:02:00,28.2,27.0,30.10,WSW,250,0.0,0.0,94,0.00,,,0.00,weatherlink.com 1.10,2013-02-15 07:02:00,
2013-02-15 05:19:00,28.1,27.0,30.10,WSW,250,0.0,0.0,95,0.00,,,0.00,weatherlink.com 1.10,2013-02-15 07:19:00,
2013-02-15 05:34:00,28.1,27.0,30.10,WSW,250,0.0,0.0,95,0.00,,,0.00,weatherlink.com 1.10,2013-02-15 07:34:00,
2013-02-15 05:49:00,27.3,26.0,30.10,WSW,250,0.0,0.0,94,0.00,,,0.00,weatherlink.com 1.10,2013-02-15 07:49:00,
2013-02-15 06:04:00,27.4,26.0,30.09,WSW,250,0.0,0.0,95,0.00,,,0.00,weatherlink.com 1.10,2013-02-15 08:04:00,
2013-02-15 06:20:00,27.5,26.0,30.09,WSW,250,0.0,0.0,95,0.00,,,0.00,weatherlink.com 1.10,2013-02-15 08:20:00,
2013-02-15 06:35:00,27.4,26.0,30.09,WSW,250,0.0,0.0,95,0.00,,,0.00,weatherlink.com 1.10,2013-02-15 08:35:00,
2013-02-15 06:50:00,27.2,26.0,30.08,WSW,250,0.0,0.0,95,0.00,,,0.00,weatherlink.com 1.10,2013-02-15 08:50:00,
2013-02-15 07:05:00,26.9,26.0,30.09,WSW,250,0.0,0.0,95,0.00,,,0.00,weatherlink.com 1.10,2013-02-15 09:05:00,
2013-02-15 07:21:00,26.7,25.0,30.09,WSW,250,0.0,0.0,95,0.00,,,0.00,weatherlink.com 1.10,2013-02-15 09:21:00,
2013-02-15 07:37:00,26.8,26.0,30.09,WSW,250,0.0,0.0,95,0.00,,,0.00,weatherlink.com 1.10,2013-02-15 09:37:00,
2013-02-15 07:51:00,26.5,25.0,30.10,WSW,250,0.0,0.0,95,0.00,,,0.00,weatherlink.com 1.10,2013-02-15 09:51:00,
2013-02-15 08:07:00,26.3,25.0,30.10,WSW,250,0.0,0.0,95,0.00,,,0.00,weatherlink.com 1.10,2013-02-15 10:07:00,
2013-02-15 08:23:00,26.2,25.0,30.10,WSW,250,0.0,0.0,95,0.00,,,0.00,weatherlink.com 1.10,2013-02-15 10:23:00,
2013-02-15 08:37:00,26.6,26.0,30.10,WSW,250,2.0,0.0,96,0.00,,,0.00,weatherlink.com 1.10,2013-02-15 10:37:00,
2013-02-15 08:53:00,26.4,25.0,30.10,WSW,251,1.0,2.0,95,0.00,,,0.00,weatherlink.com 1.10,2013-02-15 10:53:00,
2013-02-15 09:08:00,26.9,26.0,30.11,WSW,250,0.0,2.0,96,0.00,,,0.00,weatherlink.com 1.10,2013-02-15 11:08:00,
2013-02-15 09:24:00,26.3,25.0,30.10,WSW,251,0.0,0.0,95,0.00,,,0.00,weatherlink.com 1.10,2013-02-15 11:24:00,
2013-02-15 09:39:00,26.0,25.0,30.11,WSW,250,0.0,0.0,95,0.00,,,0.00,weatherlink.com 1.10,2013-02-15 11:39:00,
2013-02-15 09:54:00,26.0,25.0,30.11,WSW,250,0.0,0.0,96,0.00,,,0.00,weatherlink.com 1.10,2013-02-15 11:54:00,
2013-02-15 10:09:00,26.0,25.0,30.12,WSW,251,0.0,1.0,95,0.00,,,0.00,weatherlink.com 1.10,2013-02-15 12:09:00,
2013-02-15 10:25:00,26.2,25.0,30.12,WSW,250,0.0,0.0,96,0.00,,,0.00,weatherlink.com 1.10,2013-02-15 12:25:00,
2013-02-15 10:40:00,27.4,26.0,30.13,WSW,250,0.0,0.0,96,0.00,,,0.00,weatherlink.com 1.10,2013-02-15 12:40:00,
2013-02-15 10:56:00,27.7,27.0,30.13,WSW,250,0.0,0.0,96,0.00,,,0.00,weatherlink.com 1.10,2013-02-15 12:56:00,
2013-02-15 11:11:00,28.9,28.0,30.13,WSW,251,0.0,0.0,96,0.00,,,0.00,weatherlink.com 1.10,2013-02-15 13:11:00,
2013-02-15 11:27:00,30.8,30.0,30.14,WSW,250,2.0,4.0,96,0.00,,,0.00,weatherlink.com 1.10,2013-02-15 13:27:00,
2013-02-15 11:42:00,32.4,31.0,30.14,WSW,252,2.0,4.0,96,0.00,,,0.00,weatherlink.com 1.10,2013-02-15 13:42:00,
2013-02-15 11:57:00,33.8,33.0,30.14,WSW,252,3.0,4.0,96,0.00,,,0.00,weatherlink.com 1.10,2013-02-15 13:57:00,
2013-02-15 12:12:00,35.3,34.0,30.14,WSW,244,3.0,4.0,95,0.00,,,0.00,weatherlink.com 1.10,2013-02-15 14:12:00,
2013-02-15 12:28:00,37.2,35.0,30.13,WSW,244,2.0,4.0,93,0.00,,,0.00,weatherlink.com 1.10,2013-02-15 14:28:00,
2013-02-15 12:44:00,39.5,37.0,30.13,WSW,244,3.0,4.0,90,0.00,,,0.00,weatherlink.com 1.10,2013-02-15 14:44:00,
2013-02-15 12:59:00,41.7,38.0,30.13,WSW,241,3.0,5.0,86,0.00,,,0.00,weatherlink.com 1.10,2013-02-15 14:59:00,
2013-02-15 13:14:00,44.0,38.0,30.13,West,261,4.0,6.0,80,0.00,,,0.00,weatherlink.com 1.10,2013-02-15 15:14:00,
2013-02-15 13:30:00,46.3,38.0,30.12,WSW,258,2.0,7.0,72,0.00,,,0.00,weatherlink.com 1.10,2013-02-15 15:30:00,
2013-02-15 13:45:00,48.2,37.0,30.11,West,263,0.0,7.0,66,0.00,,,0.00,weatherlink.com 1.10,2013-02-15 15:45:00,
2013-02-15 14:01:00,50.8,39.0,30.11,West,281,0.0,2.0,65,0.00,,,0.00,weatherlink.com 1.10,2013-02-15 16:01:00,
2013-02-15 14:17:00,53.2,40.0,30.10,WSW,250,5.0,5.0,60,0.00,,,0.00,weatherlink.com 1.10,2013-02-15 16:17:00,
2013-02-15 14:32:00,53.3,39.0,30.09,WNW,282,2.0,5.0,59,0.00,,,0.00,weatherlink.com 1.10,2013-02-15 16:32:00,
2013-02-15 14:47:00,54.8,39.0,30.09,South,169,0.0,5.0,56,0.00,,,0.00,weatherlink.com 1.10,2013-02-15 16:47:00,
2013-02-15 15:02:00,56.1,40.0,30.08,East,94,0.0,3.0,54,0.00,,,0.00,weatherlink.com 1.10,2013-02-15 17:02:00,
2013-02-15 15:19:00,56.5,35.0,30.07,NW,307,4.0,16.0,45,0.00,,,0.00,weatherlink.com 1.10,2013-02-15 17:19:00,
2013-02-15 15:34:00,57.2,35.0,30.06,WSW,246,10.0,11.0,43,0.00,,,0.00,weatherlink.com 1.10,2013-02-15 17:34:00,
2013-02-15 15:49:00,57.3,34.0,30.05,South,178,3.0,13.0,41,0.00,,,0.00,weatherlink.com 1.10,2013-02-15 17:49:00,
2013-02-15 16:05:00,58.2,33.0,30.04,WSW,254,13.0,14.0,38,0.00,,,0.00,weatherlink.com 1.10,2013-02-15 18:05:00,
2013-02-15 16:21:00,57.9,32.0,30.03,West,264,6.0,14.0,37,0.00,,,0.00,weatherlink.com 1.10,2013-02-15 18:21:00,
2013-02-15 16:36:00,58.4,35.0,30.02,WSW,244,6.0,15.0,41,0.00,,,0.00,weatherlink.com 1.10,2013-02-15 18:36:00,
2013-02-15 16:51:00,58.6,34.0,30.01,SSW,204,7.0,16.0,40,0.00,,,0.00,weatherlink.com 1.10,2013-02-15 18:51:00,
2013-02-15 17:07:00,59.0,33.0,30.01,SSW,207,10.0,16.0,38,0.00,,,0.00,weatherlink.com 1.10,2013-02-15 19:07:00,
2013-02-15 17:22:00,58.5,34.0,30.00,WSW,253,5.0,11.0,40,0.00,,,0.00,weatherlink.com 1.10,2013-02-15 19:22:00,
2013-02-15 17:37:00,59.7,33.0,29.99,SSE,162,3.0,10.0,36,0.00,,,0.00,weatherlink.com 1.10,2013-02-15 19:37:00,
2013-02-15 17:52:00,60.2,35.0,29.98,SW,227,5.0,8.0,39,0.00,,,0.00,weatherlink.com 1.10,2013-02-15 19:52:00,
2013-02-15 18:08:00,58.4,32.0,29.97,SSW,198,1.0,12.0,36,0.00,,,0.00,weatherlink.com 1.10,2013-02-15 20:08:00,
2013-02-15 18:23:00,58.0,33.0,29.96,SSE,167,4.0,6.0,39,0.00,,,0.00,weatherlink.com 1.10,2013-02-15 20:23:00,
2013-02-15 18:39:00,58.5,33.0,29.96,WNW,293,5.0,10.0,38,0.00,,,0.00,weatherlink.com 1.10,2013-02-15 20:39:00,
2013-02-15 18:54:00,58.0,34.0,29.96,SSW,201,2.0,8.0,40,0.00,,,0.00,weatherlink.com 1.10,2013-02-15 20:54:00,
2013-02-15 19:09:00,58.1,36.0,29.96,SSW,202,0.0,3.0,43,0.00,,,0.00,weatherlink.com 1.10,2013-02-15 21:09:00,
2013-02-15 19:25:00,57.7,34.0,29.96,WSW,253,6.0,11.0,41,0.00,,,0.00,weatherlink.com 1.10,2013-02-15 21:25:00,
2013-02-15 19:40:00,57.3,34.0,29.96,SW,226,2.0,8.0,41,0.00,,,0.00,weatherlink.com 1.10,2013-02-15 21:40:00,
2013-02-15 19:55:00,56.9,35.0,29.96,WSW,257,3.0,10.0,43,0.00,,,0.00,weatherlink.com 1.10,2013-02-15 21:55:00,
2013-02-15 20:10:00,56.4,34.0,29.96,WNW,285,9.0,14.0,43,0.00,,,0.00,weatherlink.com 1.10,2013-02-15 22:10:00,
2013-02-15 20:27:00,56.0,35.0,29.95,NW,306,2.0,11.0,45,0.00,,,0.00,weatherlink.com 1.10,2013-02-15 22:27:00,
2013-02-15 20:41:00,55.5,35.0,29.96,WNW,289,9.0,14.0,46,0.00,,,0.00,weatherlink.com 1.10,2013-02-15 22:41:00,
2013-02-15 20:57:00,54.6,37.0,29.96,NNW,329,6.0,13.0,51,0.00,,,0.00,weatherlink.com 1.10,2013-02-15 22:57:00,
2013-02-15 21:12:00,52.8,38.0,29.97,NW,322,3.0,12.0,56,0.00,,,0.00,weatherlink.com 1.10,2013-02-15 23:12:00,
2013-02-15 21:28:00,51.9,38.0,29.98,NNW,336,4.0,10.0,59,0.00,,,0.00,weatherlink.com 1.10,2013-02-15 23:28:00,
2013-02-15 21:43:00,51.6,38.0,29.98,NW,312,8.0,8.0,59,0.00,,,0.00,weatherlink.com 1.10,2013-02-15 23:43:00,
2013-02-15 21:58:00,51.7,38.0,29.99,NW,311,8.0,12.0,59,0.00,,,0.00,weatherlink.com 1.10,2013-02-15 23:58:00,
2013-02-15 22:13:00,51.3,39.0,29.99,NW,304,6.0,11.0,63,0.00,,,0.00,weatherlink.com 1.10,2013-02-16 00:13:00,
2013-02-15 22:28:00,50.2,39.0,30.00,NW,310,5.0,13.0,66,0.00,,,0.00,weatherlink.com 1.10,2013-02-16 00:28:00,
2013-02-15 22:44:00,49.0,39.0,30.00,North,360,5.0,15.0,68,0.00,,,0.00,weatherlink.com 1.10,2013-02-16 00:44:00,
2013-02-15 22:59:00,48.3,39.0,30.01,NW,314,5.0,9.0,69,0.00,,,0.00,weatherlink.com 1.10,2013-02-16 00:59:00,
2013-02-15 23:14:00,48.3,39.0,30.01,NW,314,5.0,9.0,69,0.00,,,0.00,weatherlink.com 1.10,2013-02-16 01:14:00,
2013-02-15 23:30:00,47.6,39.0,30.01,NNW,333,3.0,7.0,72,0.00,,,0.00,weatherlink.com 1.10,2013-02-16 01:30:00,
2013-02-15 23:45:00,47.3,38.0,30.01,NNW,347,1.0,14.0,69,0.00,,,0.00,weatherlink.com 1.10,2013-02-16 01:45:00,